sat.trackr.live / text

‹ back to catalog

STARLINK-34532

NORAD 64607 · 2025-137P

PAYLOAD ACTIVE UNKNOWN

§ Identity

Operator
Country
US
Launch date
2025-06-25
Launch site
AFETR
Launch vehicle
Mass (kg)
RCS (m²)

Purposes: comms

External: N2YO · Heavens-Above · Gunter

§ Orbital elements

Epoch: 2026-05-24T23:44:20.954688Z

Period
94.10 min
Inclination
53.1596°
Eccentricity
0.0000739
Mean motion
15.30211092 rev/d
Perigee alt
474.7 km
Apogee alt
475.7 km
Semi-major
6,853.3 km
B*
4.9288e-4
RAAN
350.9863°
Arg perigee
43.4519°
Mean anomaly
316.6539°
Rev number
5,227

§ Raw data

STARLINK-345321 64607U 25137P   26144.98913142  .00014272  00000+0  49288-3 0  99942 64607  53.1596 350.9863 0000739  43.4519 316.6539 15.30211092 52276

JSON: /api/v1/satellites/64607 · /tle

For live sub-satellite position, see the globe view (requires WebGL).

§ Visibility from observer

Set your observer location to see the next 7 days of passes ≥ 10°. The values pass through the URL so the page stays shareable.

No JS? Fill the form by hand. The geolocation button needs JavaScript.